Regional Weather Roundup
Issued by NWS

Home | Current Version | Previous Version | Text Only | Print | Product List | Glossary On
Versions: 1 2 3 4 5 6 7 8 9 10 11 12 13 14 15 16 17 18 19 20 21 22 23 24 25 26 27 28 29 30 31 32 33 34 35 36 37 38 39 40 41 42 43 44 45 46 47 48 49 50
000
ASPQ40 PGUM 310712
RWRPQ
WEATHER ROUNDUP FOR THE MARIANAS AND MICRONESIA
NATIONAL WEATHER SERVICE TIYAN GU
500 PM CHST SUN AUG 31 2014

GUZ001>004-310800-
MARIANA ISLANDS-

CITY           SKY/WX    TMP DP  RH WIND       PRES   REMARKS
GUAM AIRPORT   PTSUNNY   84  77  79 CALM      29.73S HX  94
ANDERSEN AFB   LGT RAIN  79  75  89 CALM      29.74S
ROTA AIRPORT   PTSUNNY   82  77  83 VRB5      29.73S HX  91
TINIAN AP      PTSUNNY   81  77  89 NE6       29.71F
SAIPAN AP      SUNNY     82  77  83 E3        29.73S HX  91

$$

PMZ161-310800-
REPUBLIC OF PALAU-

CITY           SKY/WX    TMP DP  RH WIND       PRES   REMARKS
KOROR AP       LGT RAIN  77  75  94 SW8       29.73F
KOROR WSO      LGT RAIN  79  77  94 SW9       29.72F

$$

PMZ171>174-310800-
FEDERATED STATES OF MICRONESIA-

CITY           SKY/WX    TMP DP  RH WIND       PRES   REMARKS
YAP AIRPORT    PTSUNNY   84  79  84 S10       29.68S HX  96
CHUUK AP       PTSUNNY   84  81  89 W8        29.72R HX  98
POHNPEI AP     CLOUDY    82  77  83 NE6       29.73  HX  91
POHNPEI WSO    CLOUDY    82  77  83 E3        29.78R HX  91
KOSRAE AP      NOT AVBL

$$

PMZ181-310800-
REPUBLIC OF THE MARSHALL ISLANDS-

CITY           SKY/WX    TMP DP  RH WIND       PRES   REMARKS
KWAJALEIN AP   CLEAR     84  73  70 CALM      29.78R HX  91
MAJURO AP      NOT AVBL
MAJURO WSO     PTCLDY    84  75  74 CALM      29.75R HX  92

$$



USA.gov is the U.S. government's official web portal to all federal, state and local government web resources and services.